{"data":{"norad_id":65768,"intl_designator":"2025-217G","name":"KUIPER-00147","alt_names":[],"object_type":"PAYLOAD","status":"ACTIVE","operator":null,"country":"US","launch_date":"2025-09-25","launch_site_code":"AFETR","launch_vehicle":null,"mission":null,"orbit_class":"UNKNOWN","rcs_meters":null,"size_class":null,"mass_kg":null,"dimensions":null,"purposes":[],"wikipedia_slug":null,"has_3d_model":false,"image_url":null,"decayed_at":null,"tle_current":{"epoch":"2026-05-25T03:55:27.892128Z","epoch_age_seconds":56973,"freshness":"FRESH","line1":"1 65768U 25217G   26145.16351727  .00003615  00000+0  50284-3 0  9995","line2":"2 65768  51.8994  62.4232 0001171  73.3054 286.8036 14.79941627 36238","mean_motion":14.79941627,"eccentricity":0.0001171,"inclination_deg":51.8994,"raan_deg":62.4232,"arg_perigee_deg":73.3054,"mean_anomaly_deg":286.8036,"bstar":0.00050284,"rev_number":3623,"period_min":97.3011349724,"perigee_km":628.68780073019,"apogee_km":630.32899128193,"semimajor_km":7007.6453960061,"source":"CELESTRAK","updated_at":"2026-05-25T13:38:05.660080Z"}}}